Back to catalog

GAOFEN 13 DEB

AliveMEO
NORAD 62337·DEBRIS·🇨🇳 China

Launched Oct 11, 2020 from Xichang Satellite Launch Center

Loading…

Next Passes (next 24 hours)

TLE

FreshSource: Space-Track

Epoch: Sep 13, 2026, 22:49 UTC

1 62337U 20071C   26256.95125662 -.00000422  00000-0  00000-0 0  9997
2 62337   3.1373  79.4147 0643357  54.2478 312.0165  1.00215323  7114

Track GAOFEN 13 DEB in real time with AllMySat

Download on the App Store